Regional Weather Roundup
Issued by NWS Newport/Morehead, NC

Current Version | Previous Version | Text Only | Print | Product List | Glossary On
Versions: 1 2 3 4 5 6 7 8 9 10 11 12 13 14 15 16 17 18 19 20 21 22 23 24 25 26 27 28 29 30 31 32 33 34 35 36 37 38 39 40 41 42 43 44 45 46 47 48 49 50
705 ASUS42 KMHX 241026 RWRMHX WEATHER ROUNDUP FOR EASTERN NORTH CAROLINA NATIONAL WEATHER SERVICE NEWPORT/MOREHEAD CITY NC 600 AM EDT MON JUL 24 2017 NOTE: "FAIR" INDICATES FEW OR NO CLOUDS BELOW 12,000 FEET WITH NO SIGNIFICANT WEATHER AND/OR OBSTRUCTIONS TO VISIBILITY NCZ015>017-031-032-045>047-102-103-241100- NORTH COAST CITY SKY/WX TMP DP RH WIND PRES REMARKS EDENTON PTCLDY 77 73 87 SW9 29.88S ELIZABETH CITY MOCLDY 72 72 100 SW6 29.86S KITTY HAWK PTSUNNY 78 74 89 SW5 29.86S MANTEO CLOUDY 77 74 91 W9 29.88S $$ NCZ045>047-081-094-103-104-241100- CENTRAL COAST CITY SKY/WX TMP DP RH WIND PRES REMARKS FRISCO CLEAR 78 74 87 SW10G21 29.89R $$ NCZ095-097-098-100-101-241100- SOUTHERN COAST CITY SKY/WX TMP DP RH WIND PRES REMARKS BEAUFORT MOCLDY 80 77 90 SW14 29.91R CEDAR ISLAND NOT AVBL JACKSONVILLE CLOUDY 78 77 96 SW3 29.90R PINEY ISLAND PTSUNNY N/A N/A N/A SW9 29.90R WILMINGTON PTCLDY 78 76 93 SW9 29.92R $$ NCZ011>013-027>030-043-044-078>080-089-090>093-098-241100- COASTAL PLAIN CITY SKY/WX TMP DP RH WIND PRES REMARKS AHOSKIE N/A 70 70 99 CALM 29.86S CLINTON CLOUDY 71 71 100 CALM 29.90S ELIZABETHTOWN NOT AVBL GOLDSBORO CLOUDY 74 74 100 SW6 29.88R GREENVILLE MOCLDY 72 72 100 SW7 29.91R HAVELOCK MOCLDY 79 75 87 SW9 29.91R KENANSVILLE CLOUDY 72 72 100 SW3 29.90S KINSTON CLOUDY 73 71 92 S3 29.90S NEW BERN CLOUDY 78 76 93 SW7 29.91R RICHLANDS CLOUDY 76 75 97 SW6 29.91R ROCKY MOUNT CLOUDY 72 72 100 S7 29.87R WASHINGTON PTCLDY 73 72 94 S3 29.90R WHITEVILLE PTCLDY 75 73 96 CALM 29.91R $$ AMZ130-135-150-152-154-156-158-170-250-252-270-ANZ085-086-088-633-658-670-241100- MARINE OBSERVATIONS STATION/POSITION TIME TEMP WIND PRES WAVE SWELL AIR SEA DIR/SP/G HT/PER HT/PER (UTC) (F) (DEG/KT/KT) (MB) (FT/S) (FT/S) CHESAPEAKE LIGHT NOT AVBL 64 E VA BEACH 0950 78 79 250/ 12/ 14 1011.5 4/ 7 3/ 7 DUCK 1000 79 61 250/ 14/ 19 1011.0 2 E DUCK 1000 63 N/A 2/ 9 OREGON INLET 1000 80 82 220/ 15/ 18 1011.4 13E OREGON INLT 0948 74 N/A 5/ 5 2/11 HATTERAS CG 1000 78 77 240/ 10/ 15 1012.2 DIAMOND BUOY 0950 83 84 240/ 23/ 27 1011.7 8/ 7 2/ 9 CAPE LOOKOUT 1000 77 240/ 13/ 19 1012.4 BEAUFORT LAB 1000 80 80 230/ 7/ 15 1012.1 30 SE NEW RVR IN 1008 81 81 240/ 19/ 27 1013.2 30 SE NEW RVR IN 1013 81 N/A 8/ 7 27 SE WRIGHTSVLE 1008 82 83 230/ 19/ 23 1012.8 5 SE WRIGHTSVLE 1008 80 80 230/ 14/ 21 1012.8 225 S CAPE HAT 0950 82 83 220/ 17/ 19 1016.3 5/ 5 2/ 8 41 SE CHARLESTON 1010 81 83 230/ 19/ 23 1013.6 $$

USA.gov is the U.S. government's official web portal to all federal, state and local government web resources and services.